• In Netherlands
  • List of Countries
  • For 7 days
  • Water Temperature
  • Satellite Maps
  • Weather Map
  • Weather Widgets
  • user-avatar
    Login

    Hourly Weather Ghazni

    Today, 21 January, Saturday

    Time Temperature Precipitation Wind Pressure Humidity
    00:00 -7°C° 0 mm 2 mps 582 mmHg 53%
    01:00 -7°C° 0 mm 2 mps 582 mmHg 53%
    02:00 -7°C° 0 mm 2 mps 582 mmHg 52%
    03:00 -7°C° 0 mm 2 mps 582 mmHg 52%
    04:00 -8°C° 0 mm 2 mps 582 mmHg 52%
    05:00 -8°C° 0 mm 2 mps 581 mmHg 49%
    06:00 -8°C° 0 mm 2 mps 581 mmHg 49%
    07:00 -7°C° 0 mm 2 mps 582 mmHg 49%
    08:00 -7°C° 0 mm 2 mps 582 mmHg 49%
    09:00 -5°C° 0 mm 2 mps 583 mmHg 48%
    10:00 -3°C° 0 mm 2 mps 584 mmHg 48%
    11:00 -1°C° 0 mm 2 mps 585 mmHg 49%
    12:00 +1°C° 0 mm 2 mps 585 mmHg 51%
    13:00 +1°C° 0 mm 2 mps 585 mmHg 53%
    14:00 +2°C° 0 mm 2 mps 585 mmHg 56%
    15:00 +1°C° 0 mm 2 mps 584 mmHg 59%
    16:00 +1°C° 0 mm 2 mps 584 mmHg 62%
    17:00 -1°C° 0 mm 2 mps 584 mmHg 66%
    18:00 -2°C° 0.1 mm 2 mps 584 mmHg 68%
    19:00 -2°C° 0.1 mm 2 mps 584 mmHg 70%
    20:00 -3°C° 0.1 mm 2 mps 584 mmHg 72%
    21:00 -3°C° 0.1 mm 2 mps 584 mmHg 73%
    22:00 -3°C° 0.1 mm 2 mps 585 mmHg 75%
    23:00 -3°C° 0.1 mm 2 mps 585 mmHg 76%

    Tomorrow, 22 January, Sunday

    Time Temperature Precipitation Wind Pressure Humidity
    00:00 -4°C° 0 mm 2 mps 585 mmHg 77%
    01:00 -4°C° 0 mm 2 mps 585 mmHg 77%
    02:00 -4°C° 0 mm 2 mps 584 mmHg 78%
    03:00 -4°C° 0.1 mm 2 mps 584 mmHg 78%
    04:00 -4°C° 0.1 mm 2 mps 584 mmHg 79%
    05:00 -4°C° 0.1 mm 2 mps 584 mmHg 80%
    06:00 -4°C° 0 mm 2 mps 585 mmHg 79%
    07:00 -4°C° 0 mm 2 mps 585 mmHg 79%
    08:00 -4°C° 0 mm 2 mps 585 mmHg 79%
    09:00 -3°C° 0.1 mm 2 mps 585 mmHg 77%
    10:00 -2°C° 0.1 mm 2 mps 586 mmHg 75%
    11:00 -1°C° 0.1 mm 2 mps 586 mmHg 73%
    12:00 -1°C° 0.3 mm 2 mps 586 mmHg 74%
    13:00 -1°C° 0.3 mm 2 mps 585 mmHg 74%
    14:00 +1°C° 0.3 mm 2 mps 585 mmHg 74%
    15:00 -1°C° 0.4 mm 2 mps 585 mmHg 78%
    16:00 -1°C° 0.4 mm 2 mps 584 mmHg 81%
    17:00 -1°C° 0.4 mm 2 mps 584 mmHg 84%
    18:00 -2°C° 0.2 mm 2 mps 584 mmHg 85%
    19:00 -2°C° 0.2 mm 2 mps 585 mmHg 87%
    20:00 -3°C° 0.2 mm 2 mps 585 mmHg 88%
    21:00 -3°C° 0.2 mm 2 mps 585 mmHg 88%
    22:00 -3°C° 0.2 mm 2 mps 585 mmHg 87%
    23:00 -3°C° 0.2 mm 2 mps 585 mmHg 86%

    Day after tomorrow, 23 January, Monday

    Time Temperature Precipitation Wind Pressure Humidity
    00:00 -3°C° 0.3 mm 2 mps 585 mmHg 86%
    01:00 -3°C° 0.3 mm 2 mps 585 mmHg 85%
    02:00 -3°C° 0.3 mm 2 mps 585 mmHg 85%
    03:00 -3°C° 0.2 mm 2 mps 585 mmHg 84%
    04:00 -3°C° 0.2 mm 2 mps 584 mmHg 84%
    05:00 -3°C° 0.2 mm 2 mps 584 mmHg 84%
    06:00 -3°C° 0.5 mm 2 mps 584 mmHg 85%
    07:00 -3°C° 0.5 mm 2 mps 584 mmHg 86%
    08:00 -3°C° 0.5 mm 2 mps 584 mmHg 88%
    09:00 -3°C° 1.9 mm 2 mps 584 mmHg 90%
    10:00 -2°C° 1.9 mm 2 mps 584 mmHg 92%
    11:00 -2°C° 1.9 mm 2 mps 584 mmHg 94%
    12:00 -2°C° 0.9 mm 2 mps 583 mmHg 94%
    13:00 -2°C° 0.9 mm 2 mps 583 mmHg 93%
    14:00 -1°C° 0.9 mm 2 mps 582 mmHg 92%
    15:00 -2°C° 0.8 mm 2 mps 582 mmHg 93%
    16:00 -2°C° 0.8 mm 2 mps 582 mmHg 93%
    17:00 -2°C° 0.8 mm 2 mps 581 mmHg 94%
    18:00 -2°C° 0.3 mm 2 mps 582 mmHg 94%
    19:00 0°C° 0.3 mm 1 mps 582 mmHg 94%
    20:00 -1°C° 0.3 mm 1 mps 582 mmHg 94%
    21:00 -1°C° 0.4 mm 1 mps 582 mmHg 94%
    22:00 0°C° 0.4 mm 1 mps 582 mmHg 94%
    23:00 0°C° 0.4 mm 1 mps 582 mmHg 94%

    24 January, Tuesday

    Time Temperature Precipitation Wind Pressure Humidity
    00:00 0°C° 0.3 mm 1 mps 582 mmHg 94%
    01:00 0°C° 0.3 mm 1 mps 581 mmHg 94%
    02:00 0°C° 0.3 mm 1 mps 581 mmHg 94%
    03:00 -1°C° 0.1 mm 1 mps 581 mmHg 94%
    04:00 -2°C° 0.1 mm 1 mps 580 mmHg 95%
    05:00 -2°C° 0.1 mm 1 mps 579 mmHg 95%
    06:00 -2°C° 0 mm 1 mps 580 mmHg 96%
    07:00 -2°C° 0 mm 1 mps 580 mmHg 96%
    08:00 -2°C° 0 mm 1 mps 580 mmHg 96%
    09:00 -1°C° 0 mm 1 mps 581 mmHg 96%
    10:00 0°C° 0 mm 1 mps 582 mmHg 96%
    11:00 +2°C° 0 mm 1 mps 583 mmHg 95%
    12:00 +2°C° 0 mm 1 mps 582 mmHg 96%
    13:00 +2°C° 0 mm 1 mps 582 mmHg 96%
    14:00 +1°C° 0 mm 2 mps 581 mmHg 96%
    15:00 +1°C° 0.1 mm 2 mps 581 mmHg 96%
    16:00 +1°C° 0.1 mm 2 mps 581 mmHg 96%
    17:00 -1°C° 0.1 mm 2 mps 581 mmHg 96%
    18:00 -2°C° 0.1 mm 2 mps 581 mmHg 97%
    19:00 -1°C° 0.1 mm 1 mps 581 mmHg 98%
    20:00 -1°C° 0.1 mm 1 mps 581 mmHg 98%
    21:00 -2°C° 0.1 mm 1 mps 581 mmHg 98%
    22:00 -2°C° 0.1 mm 1 mps 581 mmHg 98%
    23:00 -3°C° 0.1 mm 0 mps 581 mmHg 97%

    25 January, Wednesday

    Time Temperature Precipitation Wind Pressure Humidity
    00:00 -3°C° 0 mm 1 mps 580 mmHg 97%
    01:00 -3°C° 0 mm 1 mps 580 mmHg 97%
    02:00 -3°C° 0 mm 1 mps 580 mmHg 96%
    03:00 -4°C° 0.1 mm 1 mps 579 mmHg 95%
    04:00 -6°C° 0.1 mm 2 mps 579 mmHg 94%
    05:00 -7°C° 0.1 mm 2 mps 578 mmHg 92%
    06:00 -6°C° 0.3 mm 2 mps 579 mmHg 92%
    07:00 -6°C° 0.3 mm 2 mps 580 mmHg 92%
    08:00 -5°C° 0.3 mm 2 mps 580 mmHg 91%
    09:00 -4°C° 0.6 mm 2 mps 581 mmHg 91%
    10:00 -4°C° 0.6 mm 2 mps 581 mmHg 91%
    11:00 -3°C° 0.6 mm 2 mps 582 mmHg 91%
    12:00 -2°C° 0.4 mm 2 mps 581 mmHg 91%
    13:00 -2°C° 0.4 mm 2 mps 581 mmHg 91%
    14:00 -2°C° 0.4 mm 3 mps 580 mmHg 91%
    15:00 -2°C° 0.1 mm 2 mps 580 mmHg 91%
    16:00 -2°C° 0.1 mm 2 mps 580 mmHg 91%
    17:00 -2°C° 0.1 mm 2 mps 579 mmHg 91%
    18:00 -3°C° 0.3 mm 2 mps 580 mmHg 92%
    19:00 -3°C° 0.3 mm 2 mps 580 mmHg 92%
    20:00 -4°C° 0.3 mm 2 mps 580 mmHg 92%
    21:00 -2°C° 0.2 mm 1 mps 580 mmHg 93%
    22:00 -2°C° 0.2 mm 1 mps 580 mmHg 93%
    23:00 -3°C° 0.2 mm 1 mps 580 mmHg 93%

    26 January, Thursday

    Time Temperature Precipitation Wind Pressure Humidity
    00:00 -3°C° 0.1 mm 1 mps 580 mmHg 93%
    01:00 -4°C° 0.1 mm 1 mps 579 mmHg 93%
    02:00 -6°C° 0.1 mm 1 mps 578 mmHg 92%
    03:00 -6°C° 0.1 mm 1 mps 578 mmHg 92%
    04:00 -7°C° 0.1 mm 1 mps 578 mmHg 91%
    05:00 -7°C° 0.1 mm 1 mps 578 mmHg 91%
    06:00 -7°C° 0 mm 1 mps 578 mmHg 91%
    07:00 -7°C° 0 mm 1 mps 579 mmHg 90%
    08:00 -7°C° 0 mm 1 mps 579 mmHg 90%
    09:00 -4°C° 0 mm 1 mps 580 mmHg 85%
    10:00 -3°C° 0 mm 1 mps 581 mmHg 81%
    11:00 -1°C° 0 mm 1 mps 582 mmHg 76%
    12:00 0°C° 0 mm 1 mps 582 mmHg 76%
    13:00 0°C° 0 mm 1 mps 581 mmHg 76%
    14:00 +1°C° 0 mm 1 mps 581 mmHg 75%
    15:00 -1°C° 0 mm 1 mps 580 mmHg 81%
    16:00 -3°C° 0 mm 1 mps 579 mmHg 86%
    17:00 -6°C° 0 mm 1 mps 578 mmHg 91%
    18:00 -7°C° 0 mm 1 mps 578 mmHg 91%
    19:00 -8°C° 0 mm 1 mps 578 mmHg 91%
    20:00 -10°C° 0 mm 2 mps 578 mmHg 91%
    21:00 -10°C° 0 mm 2 mps 579 mmHg 87%
    22:00 -9°C° 0 mm 2 mps 579 mmHg 82%
    23:00 -9°C° 0 mm 2 mps 580 mmHg 77%
    Show more